Weather observations for the past three days for
Iron Mountain / Kingsford, Ford Airport
| Date | Time (cdt) | Wind (mph) | Vis. (mi.) | Weather | Sky Cond. | Temperature (ºF) | Relative Humidity | Wind Chill (°F) | Heat Index (°F) | Pressure | Precipitation (in) | ||||||
|---|---|---|---|---|---|---|---|---|---|---|---|---|---|---|---|---|---|
| Air | Dwpt | 6 hour | altimeter (in) | sea level (mb) | 1 hr | 3 hr | 6 hr | ||||||||||
| Max. | Min. | ||||||||||||||||
| 01 | 06:54 | Calm | 0.25 | Fog | VV002 | 62.1 | 62.1 | 64 | 61 | 100% | 29.93 | 1013.2 | |||||
| 01 | 05:54 | Calm | 0.50 | Fog | OVC001 | 62.1 | 62.1 | 100% | 29.91 | 1012.6 | |||||||
| 01 | 04:54 | Calm | 0.25 | Fog | VV001 | 62.1 | 62.1 | 100% | 29.92 | 1012.7 | |||||||
| 01 | 03:54 | N 3 | 0.25 | Fog | VV001 | 62.1 | 62.1 | 100% | 29.91 | 1012.5 | |||||||
| 01 | 02:54 | Calm | 0.75 | Fog/Mist | VV002 | 63 | 63 | 100% | 29.91 | 1012.6 | |||||||
| 01 | 01:54 | Calm | 0.75 | Fog/Mist | VV002 | 64 | 64 | 100% | 29.9 | 1012.3 | |||||||
| 01 | 00:54 | Calm | 0.25 | Fog | OVC001 | 66 | 66 | 79 | 64 | 100% | 29.91 | 1012.3 | |||||
| 31 | 23:54 | Calm | 0.25 | Fog | VV001 | 64.9 | 64.9 | 100% | 29.9 | 1012.1 | |||||||
| 31 | 22:54 | Calm | 0.25 | Fog | VV002 | 66.9 | 66.9 | 100% | 29.89 | 1011.9 | |||||||
| 31 | 21:54 | Calm | 0.50 | Fog | VV002 | 68 | 68 | 100% | 29.9 | 1012.1 | |||||||
| 31 | 20:54 | W 3 | 6.00 | Fog/Mist | CLR | 72 | 72 | 100% | 29.9 | 1012.0 | |||||||
| 31 | 19:54 | Calm | 10.00 | A Few Clouds | FEW027 FEW035 | 73.9 | 72 | 94% | 29.87 | 1011.2 | |||||||
| 31 | 18:54 | Calm | 10.00 | Fair | CLR | 79 | 73 | 82.9 | 75.9 | 82% | 82 | 29.86 | 1010.6 | ||||
| 31 | 17:54 | SW 3 | 10.00 | Partly Cloudy | SCT026 | 81 | 73 | 77% | 86 | 29.86 | 1010.5 | ||||||
| 31 | 16:54 | SW 5 | 10.00 | Mostly Cloudy | BKN024 | 81 | 73 | 77% | 86 | 29.84 | 1010.1 | ||||||
| 31 | 15:54 | S 5 | 10.00 | Fair | CLR | 82 | 71.1 | 69% | 86 | 29.83 | 1009.6 | ||||||
| 31 | 14:54 | Vrbl 3 | 10.00 | Fair | CLR | 81 | 71.1 | 72% | 85 | 29.83 | 1009.8 | ||||||
| 31 | 13:54 | W 5 | 10.00 | Partly Cloudy | SCT016 | 79 | 70 | 74% | 82 | 29.85 | 1010.2 | ||||||
| 31 | 12:54 | S 5 | 10.00 | Overcast | OVC014 | 75.9 | 69.1 | 75.9 | 66 | 79% | 77 | 29.87 | 1011.1 | ||||
| 31 | 11:54 | S 6 | 10.00 | Overcast | OVC012 | 73.9 | 69.1 | 85% | 29.87 | 1011.0 | |||||||
| 31 | 10:54 | S 8 | 10.00 | Overcast | OVC013 | 72 | 69.1 | 91% | 29.88 | 1011.3 | |||||||
| 31 | 09:54 | S 7 | 6.00 | Fog/Mist | OVC002 | 69.1 | 69.1 | 100% | 29.87 | 1011.2 | |||||||
| 31 | 08:54 | SE 6 | 0.25 | Fog | VV001 | 68 | 68 | 100% | 29.88 | 1011.5 | |||||||
| 31 | 07:54 | SE 6 | 0.25 | Fog | VV001 | 66.9 | 66.9 | 100% | 29.89 | 1012.0 | |||||||
| 31 | 06:54 | SE 5 | 1.25 | Fog/Mist | OVC001 | 66 | 66 | 66.9 | 66 | 100% | 29.88 | 1011.7 | 0.21 | ||||
| 31 | 05:54 | SE 7 | 7.00 | Overcast | OVC002 | 66 | 66 | 100% | 29.89 | 1011.7 | |||||||
| 31 | 04:54 | SE 7 | 10.00 | Overcast | BKN003 OVC050 | 66 | 66 | 100% | 29.89 | 1012.0 | 0.21 | ||||||
| 31 | 03:54 | SE 7 | 0.50 | Thunderstorm in Vicinity Light Rain Fog | VV001 | 66 | 66 | 100% | 29.92 | 1012.8 | |||||||
| 31 | 02:54 | E 5 | 1.50 | Fog/Mist | OVC001 | 66 | 66 | 100% | 29.94 | 1013.5 | |||||||
| 31 | 01:49 | E 6 | 2.50 | Fog/Mist | OVC002 | 66.9 | 66 | 97% | 29.95 | 1013.8 | |||||||
| 31 | 00:54 | SE 3 | 0.75 | Fog/Mist | OVC001 | 66.9 | 66 | 68 | 66.9 | 97% | 29.95 | 1013.8 | |||||
| 30 | 23:54 | SE 5 | 1.00 | Fog/Mist | OVC001 | 66.9 | 66.9 | 100% | 29.97 | 1014.6 | |||||||
| 30 | 22:54 | SE 6 | 3.00 | Fog/Mist | OVC002 | 66.9 | 66.9 | 100% | 29.96 | 1014.3 | |||||||
| 30 | 21:54 | E 6 | 8.00 | Overcast | OVC006 | 68 | 66.9 | 96% | 29.96 | 1014.2 | |||||||
| 30 | 19:54 | E 5 | 7.00 | Overcast | BKN005 BKN011 OVC016 | 68 | 66.9 | 96% | 29.94 | 1013.7 | |||||||
| 30 | 18:54 | Calm | 2.50 | Light Rain Fog/Mist | OVC007 | 68 | 66.9 | 72 | 68 | 96% | 29.94 | 1013.5 | |||||
| 30 | 17:54 | E 5 | 9.00 | Overcast | BKN010 OVC015 | 70 | 66.9 | 90% | 29.93 | 1013.4 | |||||||
| 30 | 16:54 | NE 5 | 10.00 | Overcast | OVC013 | 71.1 | 66.9 | 87% | 29.93 | 1013.2 | |||||||
| 30 | 15:54 | NE 6 | 10.00 | Overcast | OVC012 | 71.1 | 66 | 84% | 29.93 | 1013.3 | |||||||
| 30 | 14:54 | NE 5 | 10.00 | Overcast | OVC011 | 70 | 66 | 87% | 29.94 | 1013.6 | |||||||
| 30 | 13:54 | NE 6 | 10.00 | Overcast | OVC007 | 69.1 | 66 | 90% | 29.93 | 1013.5 | |||||||
| 30 | 12:54 | E 7 | 8.00 | Overcast | OVC006 | 68 | 66 | 68 | 64 | 93% | 29.93 | 1013.4 | |||||
| 30 | 11:54 | E 7 | 10.00 | Overcast | OVC007 | 66.9 | 64.9 | 93% | 29.93 | 1013.6 | |||||||
| 30 | 10:54 | NE 5 | 10.00 | Light Rain | OVC006 | 66.9 | 64.9 | 93% | 29.94 | 1013.9 | |||||||
| 30 | 09:54 | NE 6 | 10.00 | Overcast | OVC005 | 66.9 | 64.9 | 93% | 29.93 | 1013.3 | |||||||
| 30 | 08:54 | N 5 | 8.00 | Overcast | OVC003 | 66 | 64.9 | 96% | 29.93 | 1013.5 | |||||||
| 30 | 07:54 | N 3 | 8.00 | Overcast | OVC002 | 64.9 | 64 | 97% | 29.93 | 1013.4 | |||||||
| 30 | 06:54 | Calm | 1.25 | Fog/Mist | OVC002 | 64 | 64 | 64 | 63 | 100% | 29.92 | 1013.1 | 0.01 | ||||
| 30 | 05:54 | Calm | 2.00 | Fog/Mist | OVC002 | 64 | 63 | 96% | 29.91 | 1012.9 | |||||||
| 30 | 04:54 | Calm | 3.00 | Fog/Mist | OVC001 | 64 | 64 | 100% | 29.91 | 1012.8 | |||||||
| 30 | 03:49 | Calm | 2.50 | Fog/Mist | OVC001 | 64 | 64 | 100% | 29.92 | 1013.0 | 0.01 | ||||||
| 30 | 02:54 | Calm | 7.00 | Overcast | OVC002 | 63 | 63 | 100% | 29.93 | 1013.2 | |||||||
| 30 | 01:54 | Calm | 4.00 | Fog/Mist | OVC003 | 63 | 63 | 100% | 29.94 | 1013.8 | 0.01 | ||||||
| 30 | 00:54 | SE 3 | 4.00 | Fog/Mist | OVC003 | 63 | 62.1 | 63 | 62.1 | 97% | 29.95 | 1014.1 | 0.01 | 0.14 | |||
| 29 | 23:54 | SE 3 | 3.00 | Light Rain Fog/Mist | OVC004 | 63 | 62.1 | 97% | 29.97 | 1014.8 | 0.03 | ||||||
| 29 | 21:54 | SE 3 | 4.00 | Light Rain Fog/Mist | OVC005 | 63 | 62.1 | 97% | 29.99 | 1015.5 | 0.01 | 0.05 | |||||
| 29 | 20:54 | SE 5 | 9.00 | Light Rain | BKN005 OVC012 | 63 | 62.1 | 97% | 29.99 | 1015.6 | |||||||
| 29 | 19:54 | E 7 | 6.00 | Light Rain Fog/Mist | SCT039 BKN049 OVC060 | 63 | 62.1 | 97% | 29.98 | 1015.3 | 0.04 | ||||||
| 29 | 18:54 | SE 3 | 3.00 | Light Rain Fog/Mist | SCT007 OVC033 | 63 | 62.1 | 70 | 63 | 97% | 30 | 1015.9 | 0.04 | 0.12 | |||
| 29 | 17:54 | S 8 | 6.00 | Light Rain Fog/Mist | BKN009 OVC015 | 66 | 64 | 93% | 30 | 1015.8 | 0.06 | ||||||
| 29 | 16:54 | S 5 | 10.00 | Light Rain | SCT013 BKN020 OVC048 | 66.9 | 64 | 91% | 29.99 | 1015.7 | |||||||
| 29 | 15:54 | Vrbl 3 | 10.00 | Overcast | SCT019 OVC024 | 68 | 64 | 87% | 30 | 1016.0 | 0.02 | ||||||
| 29 | 14:54 | SW 7 | 10.00 | Light Rain | FEW014 BKN032 OVC038 | 68 | 64 | 87% | 30.01 | 1016.3 | 0.01 | ||||||
| 29 | 13:54 | S 7 | 10.00 | Light Rain | FEW070 OVC100 | 69.1 | 63 | 81% | 30.02 | 1016.5 | 0.01 | ||||||
| 29 | 12:54 | SW 6 | 10.00 | Light Rain | BKN080 OVC090 | 69.1 | 62.1 | 73 | 57 | 78% | 30.02 | 1016.6 | |||||
| 29 | 11:54 | W 10 | 10.00 | Partly Cloudy | FEW070 SCT095 | 72 | 61 | 68% | 30.03 | 1017.0 | |||||||
| 29 | 10:54 | SW 5 | 10.00 | Overcast | OVC075 | 69.1 | 59 | 70% | 30.05 | 1017.4 | |||||||
| 29 | 09:54 | Calm | 10.00 | Overcast | OVC090 | 66.9 | 57.9 | 73% | 30.05 | 1017.5 | |||||||
| 29 | 08:54 | Calm | 10.00 | Mostly Cloudy | BKN100 | 63 | 57 | 81% | 30.06 | 1017.7 | |||||||
| 29 | 07:54 | N 3 | 10.00 | Mostly Cloudy | BKN120 | 60.1 | 55.9 | 86% | 30.06 | 1018.0 | |||||||
| Date | Time (cdt) | Wind (mph) | Vis. (mi.) | Weather | Sky Cond. | Air | Dwpt | Max. | Min. | Relative Humidity | Wind Chill (°F) | Heat Index (°F) | altimeter (in) | sea level (mb) | 1 hr | 3 hr | 6 hr |
| 6 hour | |||||||||||||||||
| Temperature (ºF) | Pressure | Precipitation (in) | |||||||||||||||